Theta_e
299 299 298 298 298 299 302 303 301 302 301 302 305 305 306 306 306 305 302 297 297 299 300 300 299 298 300 305 306 305 306 306 306 306 306 307 306 306
300 300 300 299 299 299 300 300 301 302 302 300 298 299 301 303 301 297 297 299 300 301 302 303 304 304 302 303 305 305 306 306 307 307 308 309 309 309
300 300 300 299 299 299 298 298 298 299 300 298 297 296 296 295 295 297 298 299 298 298 301 302 302 302 304 305 305 305 305 306 307 307 308 309 309 309
301 301 300 299 299 299 298 298 297 297 297 296 296 296 295 295 295 296 298 299 298 298 298 301 300 302 302 303 304 305 305 306 306 306 307 308 309 309
301 300 300 300 299 299 299 299 298 298 297 296 297 296 296 295 296 297 298 298 299 299 298 297 298 300 302 303 303 304 304 304 305 306 306 307 308 309
297 297 297 298 298 299 299 299 298 298 297 297 297 297 297 297 296 298 299 299 299 298 297 296 296 297 300 301 302 303 302 303 303 304 305 305 306 306
294 294 294 295 295 296 297 298 298 298 298 297 297 298 298 297 296 298 298 298 298 298 298 298 297 296 297 296 296 300 301 301 302 303 303 304 304 305
292 292 292 292 293 293 294 295 296 297 297 297 297 297 298 298 297 296 298 298 297 297 296 297 296 297 296 296 296 295 294 296 299 300 302 303 303 304
291 291 291 291 291 291 291 291 292 292 293 294 295 295 296 297 296 295 296 297 296 295 295 296 297 297 296 297 297 296 295 294 295 300 301 301 302 302
291 291 291 291 291 290 290 290 290 291 291 292 293 292 293 294 295 296 296 295 295 295 294 293 296 297 296 296 296 296 296 295 295 296 299 300 301 302
291 290 290 291 291 291 291 291 291 291 290 290 290 291 291 293 294 295 295 295 295 295 294 293 295 296 296 296 296 296 296 295 295 295 297 297 298 299
293 293 292 291 291 290 290 290 290 290 289 289 289 289 290 289 289 292 294 295 294 293 294 293 294 294 293 293 295 295 295 295 295 295 295 295 296 295
290 290 291 291 290 290 289 289 289 289 289 289 289 289 289 289 289 288 288 292 294 294 294 293 292 292 292 292 292 292 292 293 293 293 293 293 293 293
289 288 288 289 289 290 289 289 289 289 289 289 288 288 288 288 288 289 289 290 290 292 293 293 292 292 291 291 291 292 291 291 291 291 292 292 292 292
289 289 289 289 289 289 290 290 290 290 289 289 289 288 288 288 289 289 290 290 290 291 290 291 291 291 290 290 291 291 290 291 290 290 290 291 292 292
289 289 289 289 289 291 291 291 290 290 290 290 289 289 289 289 290 290 291 290 290 290 290 290 290 291 291 290 290 290 290 289 290 289 289 289 290 290
289 289 289 289 289 289 289 290 291 290 290 291 291 291 291 290 290 290 290 289 289 289 289 289 290 290 290 290 289 289 290 291 291 289 288 289 289 289
289 289 289 289 289 289 288 289 290 290 290 291 291 290 290 289 289 288 287 288 288 288 289 289 289 289 289 289 289 289 290 290 290 288 287 287 288 289
289 288 288 288 288 288 289 289 289 290 289 289 289 288 288 288 288 287 287 287 288 288 289 288 288 288 288 287 288 288 289 289 289 288 286 286 287 287
288 288 288 288 288 288 289 289 289 287 287 286 286 287 287 287 287 287 287 287 288 288 288 289 288 288 288 288 287 288 288 288 288 288 286 286 286 286
288 287 287 287 287 287 287 287 286 286 286 286 286 286 287 288 288 288 288 287 288 289 289 289 289 289 288 288 287 286 286 286 287 287 286 285 285 285
286 286 286 285 286 286 286 285 285 285 285 286 286 286 287 287 287 288 287 287 288 288 289 289 288 288 287 287 286 286 285 286 286 286 285 285 285 286
285 285 285 285 285 285 285 285 285 285 286 286 286 286 286 287 287 288 287 288 288 288 288 288 287 288 287 286 286 285 285 285 285 284 284 285 285 285
Wind_Speed
9 9 10 9 10 10 13 16 11 9 15 1 3 5 7 11 16 21 25 23 20 18 17 18 18 20 23 23 22 20 20 20 20 19 19 20 20 21
10 10 11 11 11 11 13 14 14 15 16 17 17 17 19 21 25 26 24 21 20 18 16 15 15 17 18 20 20 20 20 20 20 19 19 18 18 18
12 12 12 12 13 13 14 16 16 17 24 27 23 21 22 21 21 21 21 23 22 18 18 17 18 18 15 16 19 20 20 20 20 20 20 19 20 19
14 14 14 13 14 14 15 16 17 17 21 27 26 24 22 20 20 21 20 21 21 20 17 21 21 16 14 17 17 18 20 21 21 21 22 21 20 20
16 16 16 15 15 15 16 17 17 18 20 23 28 26 23 20 19 19 20 21 20 18 19 22 18 16 18 17 17 19 21 22 22 22 21 22 23 23
16 16 16 17 17 17 17 18 19 20 21 23 25 26 23 20 18 19 20 18 19 19 21 20 19 15 16 20 22 23 23 24 25 25 24 24 24 24
16 15 15 16 16 16 18 19 21 22 23 25 27 26 25 22 18 19 24 26 25 22 14 13 14 15 17 17 17 20 23 23 25 27 27 27 26 26
17 16 16 15 16 16 15 16 18 20 23 25 28 29 29 26 22 19 23 29 30 25 18 19 18 19 19 17 16 17 21 25 24 21 20 24 26 27
18 17 16 15 15 16 16 16 16 17 19 20 23 25 27 26 26 26 25 27 33 31 30 32 24 20 16 15 14 16 17 17 18 17 16 18 19 24
20 19 19 18 17 17 17 18 18 19 21 22 25 24 24 22 24 26 27 30 33 33 29 37 30 23 18 16 17 17 19 20 18 17 18 19 21 20
21 21 22 22 22 22 24 24 23 23 21 21 23 24 24 24 23 27 32 33 37 38 31 28 30 29 25 18 17 19 19 18 14 13 14 16 18 19
25 25 25 27 27 27 28 27 29 28 26 26 26 26 26 27 25 25 26 28 32 31 22 19 24 21 18 18 16 15 12 12 16 18 18 19 21 24
29 30 29 29 31 31 31 32 32 31 31 30 30 30 28 27 25 23 23 26 28 31 28 25 27 27 26 28 28 25 24 23 22 22 22 22 23 25
31 31 30 29 29 30 32 33 34 33 34 34 34 33 32 30 27 24 22 25 27 32 32 29 28 29 31 31 33 31 27 25 24 24 24 24 23 23
30 32 32 33 31 31 32 33 33 34 34 34 34 32 30 28 26 26 25 23 26 30 31 32 34 33 35 37 38 36 34 32 29 28 28 26 21 19
30 33 33 34 34 33 33 37 36 32 31 32 32 30 29 28 28 26 26 26 28 30 31 30 34 37 38 40 39 40 37 34 31 28 27 26 23 22
29 31 33 34 35 36 35 33 32 30 30 31 32 31 31 30 31 28 28 30 33 34 35 36 33 33 35 37 42 41 39 39 36 31 28 27 24 21
25 29 32 32 33 33 32 30 31 30 31 30 31 33 36 33 33 33 32 33 34 35 37 35 34 33 32 34 36 37 36 37 34 29 25 25 27 22
26 30 31 30 31 32 33 32 31 30 30 32 35 35 33 34 34 33 32 33 34 35 34 34 33 33 32 33 35 28 26 24 21 22 23 24 24 22
29 30 30 29 31 32 33 32 33 34 31 30 30 32 32 32 33 34 32 31 32 34 35 33 35 35 37 38 33 33 29 25 24 22 21 19 20 20
26 26 28 30 33 34 35 36 36 35 33 33 32 32 32 32 34 35 33 30 30 33 36 35 34 31 31 32 33 32 25 22 19 17 17 19 21 21
30 33 34 34 33 32 32 31 32 33 33 31 31 31 32 32 33 33 32 31 31 31 32 32 31 30 28 30 30 29 27 25 23 19 18 18 18 9
31 30 32 33 33 33 33 33 33 33 32 31 32 32 31 32 31 30 33 27 30 29 29 28 28 27 26 27 26 25 21 17 16 18 19 18 18 20
Wind_Direction
305 302 296 288 280 269 260 275 294 298 315 267 212 242 249 261 268 282 294 295 287 291 290 289 282 273 266 265 265 265 266 265 264 263 261 261 258 256
300 297 298 294 288 284 279 277 269 265 269 280 281 279 272 273 282 291 297 301 302 293 296 290 291 286 277 265 262 261 262 262 263 264 263 260 259 256
299 295 295 293 289 284 277 279 276 267 270 285 288 293 294 295 293 294 298 299 298 291 273 285 281 282 281 271 267 265 263 263 263 260 260 262 261 260
296 294 295 292 289 289 287 283 279 277 277 287 294 299 301 304 300 297 296 301 305 306 287 279 285 276 269 268 266 267 269 267 265 263 260 259 261 261
297 297 297 294 291 288 287 285 285 284 280 284 294 300 305 306 302 291 294 297 300 304 304 301 297 277 265 263 261 266 268 270 267 266 263 259 260 261
296 294 293 291 290 288 285 282 282 283 284 285 290 297 301 308 303 303 299 295 303 305 302 295 298 280 273 273 263 260 262 265 264 263 265 265 262 261
306 304 301 298 297 295 290 287 282 282 284 286 289 294 296 300 299 300 293 295 300 312 299 294 300 294 288 286 278 270 267 266 266 265 264 265 265 262
307 306 304 302 300 297 295 292 288 283 282 282 286 288 295 296 295 290 290 295 298 306 302 298 299 296 295 289 281 272 269 268 268 271 264 262 263 265
302 302 302 302 300 299 297 296 296 295 293 291 286 287 291 293 290 282 277 281 287 294 296 300 303 298 292 284 282 282 277 278 277 267 255 262 262 268
300 301 300 301 299 295 292 290 292 292 293 290 288 293 289 288 283 281 281 280 281 285 291 291 299 295 291 287 284 273 278 277 275 266 265 263 267 272
302 302 301 301 302 300 297 295 292 291 290 286 285 286 284 281 278 280 276 277 280 284 287 286 289 294 295 289 277 272 272 272 271 264 259 263 269 272
296 293 292 293 294 294 292 290 287 291 293 290 286 285 286 287 285 272 274 276 278 283 289 267 278 290 299 290 281 274 269 275 282 279 276 277 277 276
297 297 296 294 292 290 288 286 286 290 288 286 283 282 283 286 287 288 291 272 271 266 270 275 276 280 277 277 278 277 276 275 273 271 272 272 272 275
296 297 297 295 292 288 285 285 287 289 289 288 285 283 284 286 289 289 284 275 276 268 270 275 272 272 276 278 277 281 280 276 274 274 272 272 269 268
293 295 297 299 297 289 284 284 284 283 283 281 280 281 283 289 291 287 286 279 271 268 271 272 268 273 270 271 274 278 280 279 280 279 277 272 266 268
286 286 286 288 289 287 286 286 287 287 283 281 279 283 288 289 288 284 281 283 281 281 273 268 273 270 270 268 270 273 275 273 274 278 277 273 272 275
288 287 287 287 288 287 288 283 286 288 285 284 284 285 284 284 282 283 279 280 278 278 277 277 272 268 270 264 262 267 271 273 272 272 271 273 274 274
281 280 283 285 284 286 284 282 288 287 285 282 279 279 281 278 278 282 283 276 276 278 274 272 268 270 274 266 258 261 266 268 271 269 266 268 273 273
274 279 280 281 284 284 285 286 285 282 284 280 281 281 279 274 279 284 280 281 274 277 269 270 262 261 252 252 268 267 264 268 266 264 260 254 264 271
278 277 279 282 284 283 282 280 280 286 284 282 282 282 279 276 279 282 279 281 274 271 273 268 261 257 252 258 263 272 271 266 256 258 264 257 264 274
280 282 282 283 281 281 283 284 285 285 286 285 283 282 281 278 281 284 276 280 275 273 271 269 272 276 272 266 258 260 258 253 248 253 260 257 263 273
284 287 288 287 286 286 287 286 284 285 285 282 281 282 281 281 281 275 281 280 279 281 273 275 273 265 255 253 256 259 256 253 247 250 256 250 255 251
291 292 293 292 292 292 291 289 287 285 285 284 285 286 284 282 278 271 282 278 282 279 276 273 269 260 252 249 255 253 254 249 242 245 251 249 251 254